Weather in Novodruzhesk

Ukraine / Luhansk Region     48°57′49″N   38°21′07″E
temp.,
°C
wind,
m/s
gust,
m/s
humid.,
%
clouds,
%
prec.,
mm/h
press.,
hPa
HPBL,
m
22 april, thu
thu2200:00+9ssw366758 0.0 1018138
03:00+8sw36825 0.1 1019138
06:00+7ssw25895 0.0 1020117
09:00+13sw34635 0.0 1021584
12:00+17sw444155 0.0 10212115
15:00+17w3437100 0.0 10201924
18:00+15wsw225078 0.1 1021491
21:00+12ssw11575 0.1 102112
23 april, fri
fri2300:00+10sw23705 0.0 102163
03:00+9sw358024 0.0 1021103
06:00+8sw378628 0.0 1021162
09:00+13sw466612 0.0 1021563
12:00+17sw67425 0.0 10192067
15:00+18sw673497 0.0 10172641
18:00+17sw5739100 0.0 10161131
21:00+14ssw71254100 0.0 1016700
24 april, sat
sat2400:00+11sw51173100 0.3 1015674
03:00+10wsw5118099 0.4 10141257
06:00+8nw5782100 0.6 10151023
09:00+9wnw46595 0.6 10161259
12:00+13wsw7104093 0.1 10152371
15:00+12w7114031 0.4 10152282
18:00+11w7104353 0.1 10161960
21:00+7wnw6106063 0.3 10191242
25 april, sun
sun2500:00+5w49600 0.0 1020603
03:00+3w38680 0.0 1021279
06:00+3wsw27690 0.0 1022237
09:00+7w46435 0.0 10221336
12:00+11w34319 0.0 10212218
15:00+12w3429100 0.0 10202442
18:00+12w333122 0.0 10192142
21:00+9ssw1138100 0.0 101916
26 april, mon
mon2600:00+7s22425 0.0 101928
03:00+6ssw2249100 0.0 101828
06:00+6ssw2454100 0.0 1018115
09:00+9ssw4548100 0.0 1017544
12:00+13sw573772 0.0 10162237
15:00+12wsw7954100 0.1 10151528
18:00+8w687496 0.3 1015976
21:00+6w467992 0.3 1016625